Weather Roundup
Issued by NWS Chicago, IL

Home | Current Version | Previous Version | Graphics & Text | Print | Product List | Glossary On
Versions: 1 2 3 4 5 6 7 8 9 10 11 12 13 14 15 16 17 18 19 20 21 22 23 24 25 26 27 28 29 30 31 32 33 34 35 36 37 38 39 40 41 42 43 44 45 46 47 48 49 50
000
NZUS59 KLOT 230003
HRRLOT

CHICAGO AREA WEATHER ROUNDUP
NATIONAL WEATHER SERVICE CHICAGO/ROMEOVILLE IL
600 PM CST WED NOV 22 2017

NOTE: "FAIR" INDICATES FEW OR NO CLOUDS BELOW 12,000 FEET WITH NO
SIGNIFICANT WEATHER AND/OR OBSTRUCTIONS TO VISIBILITY.

* THESE STATIONS ARE NOT UNDER NWS QUALITY CONTROL. THEY ALSO MAY NOT
  REPORT WEATHER SUCH AS PRECIPITATION OR FOG.

ILZ005-006-012>014-019>023-230100-
NORTHEAST ILLINOIS

CITY           SKY/WX    TMP DP  RH WIND       PRES   REMARKS
OHARE          CLOUDY    32  17  54 W3        30.25R
6HR MIN TEMP:  31; 6HR MAX TEMP:  35;

MIDWAY         NOT AVBL
AURORA         PTCLDY    29  20  69 SW5       30.26R WCI  24
6HR MIN TEMP:  29; 6HR MAX TEMP:  34;

LANSING*       PTCLDY    27  21  77 S5        30.26F WCI  22
JOLIET*        PTCLDY    32  20  62 CALM      30.27R
WAUKEGAN       PTCLDY    30  16  56 SW3       30.23S
6HR MIN TEMP:  30; 6HR MAX TEMP:  34;

DUPAGE AIRPORT PTCLDY    29  19  66 SW7       30.24S WCI  22
6HR MIN TEMP:  28; 6HR MAX TEMP:  33;

WHEELING       PTCLDY    32  17  54 W5        30.26S WCI  27
6HR MIN TEMP:  32; 6HR MAX TEMP:  35;

KANKAKEE*      CLOUDY    30  17  60 CALM      30.27S
MORRIS*        PTCLDY    31  19  61 SW3       30.26R
LEWIS AIRPORT* PTCLDY    29  20  69 SW3       30.26R
NORTHERLY ISL    N/A     33  14  45 S6          N/A  WCI  28
$$

WIZ051-052-058>065-066-070>072-230100-
SOUTHEAST WISCONSIN

CITY           SKY/WX    TMP DP  RH WIND       PRES   REMARKS
MILWAUKEE      CLOUDY    32  16  51 SW8       30.22F WCI  25
6HR MIN TEMP:  31; 6HR MAX TEMP:  34;

KENOSHA*       PTCLDY    30  16  56 SW5       30.23S WCI  25
RACINE*        PTCLDY    30  17  58 SW5       30.24S WCI  25
WAUKESHA       CLOUDY    28  14  54 SW5       30.21F WCI  23
WEST BEND      CLOUDY    30  16  55 S6        30.19F WCI  24
$$

INZ001>003-010>013-019-020-230100-
NORTHWEST INDIANA

CITY           SKY/WX    TMP DP  RH WIND       PRES   REMARKS
GARY*          MOCLDY    32  14  47 VRB5      30.26F WCI  27
MICHIGAN CITY* NOT AVBL
RENSSELAER*    NOT AVBL
VALPARAISO     CLOUDY    32  17  54 SW7       30.26S WCI  26
$$

LMZ740>746-230100-
SOUTHERN LAKE MICHIGAN

STATION/POSITION TIME  SKY/WX   TEMP WIND        PRES    VSBY
                                AIR  DIR/SP/G
                 (UTC)          (F)  (DEG/KT/KT) (MB)    (MI)
HARRISON CRIB    2340            34  200/ 10/ 11   N/A
BURNHAM HARBOR   0000            33  250/  7/  8   N/A
CALUMET HARBOR   2330            33  200/  4/  5 1023.6F
BURNS HARBOR     2340            34  210/  6/  8 1024.7F
MICHIGAN CITY    2340            33  150/  3/  4   N/A
$$

ABBREVIATIONS USED IN REMARKS
   TC - TEMPERATURE IN CELSIUS
  WCI - WIND CHILL INDEX
   HX - HEAT INDEX
  VSB - VISIBILITY
$$




USA.gov is the U.S. government's official web portal to all federal, state and local government web resources and services.